Regional Weather Roundup
Issued by NWS Sioux Falls, SD

Home | Current Version | Previous Version | Graphics & Text | Print | Product List | Glossary On
Versions: 1 2 3 4 5 6 7 8 9 10 11 12 13 14 15 16 17 18 19 20 21 22 23 24 25 26 27 28 29 30 31 32 33 34 35 36 37 38 39 40 41 42 43 44 45 46 47 48 49 50
236
ASUS43 KFSD 280810
RWRFSD

WEATHER ROUNDUP FOR SE SOUTH DAKOTA/SW MINNESOTA/NW IOWA
NATIONAL WEATHER SERVICE SIOUX FALLS SD
300 AM CDT SUN MAY 28 2017

NOTE: "FAIR" INDICATES FEW OR NO CLOUDS BELOW 12,000 FEET WITH NO
SIGNIFICANT WEATHER AND OR OBSTRUCTIONS TO VISIBILITY.


SDZ038>040-050-052>070-280900-
SOUTHEAST SOUTH DAKOTA

CITY           SKY/WX    TMP DP  RH WIND       PRES   REMARKS
BROOKINGS      CLEAR     53  48  83 W8        29.84S
CHAMBERLAIN    CLEAR     53  46  76 W7        29.92S
HURON          CLEAR     49  44  83 W8        29.86S
MADISON        FAIR      54  54 100 W10       29.86S
MITCHELL       CLEAR     54  47  77 W10       29.88S
SIOUX FALLS    PTCLDY    56  52  86 W6        29.85F
WINNER         FAIR      53  44  71 W6        29.95S
YANKTON        CLEAR     56  49  77 W7        29.88S
$$

MNZ071-072-080-081-089-090-097-098-280900-
SOUTHWEST MINNESOTA

CITY           SKY/WX    TMP DP  RH WIND       PRES   REMARKS
FAIRMONT       CLOUDY    57  52  83 W13       29.83F
JACKSON        CLEAR     54  50  87 SW8       29.84F
LUVERNE        CLEAR     52  46  82 W10       29.85F
MARSHALL       CLEAR     58  50  75 W16       29.80S
MONTEVIDEO     PTCLDY    57  46  67 W3        29.78S
PIPESTONE      CLEAR     52  46  82 W5        29.84S
REDWOOD FALLS  CLEAR     58  47  66 SW13      29.77F
TRACY          PTCLDY    57  51  78 SW14      29.80F
WINDOM         CLEAR     55  50  82 SW8       29.82F
WORTHINGTON    CLEAR     55  49  80 SW14      29.84F
$$

IAZ001>003-012>014-020>022-031-032-NEZ013-014-SDZ071-280900-
NORTHWEST IOWA

CITY           SKY/WX    TMP DP  RH WIND       PRES   REMARKS
CHEROKEE       CLEAR     53  51  95 S6        29.87F
DENISON        CLOUDY    54  52  94 SE5       29.92R
ESTHERVILLE    CLEAR     56  52  86 W10       29.83F
LE MARS        CLEAR     52  50  93 SW3       29.88F
ORANGE CITY    CLEAR     52  50  93 W6        29.86F
SHELDON        CLEAR     54  50  87 W8        29.84F
SIOUX CITY     LGT RAIN  51  48  89 CALM      29.88F
SPENCER        CLEAR     52  50  93 W8        29.84F
STORM LAKE     CLEAR     54  50  87 W9        29.88S
$$

ABBREVIATIONS USED IN REMARKS
   TC - TEMPERATURE IN CELSIUS
  WCI - WIND CHILL INDEX
   HX - HEAT INDEX
  VSB - VISIBILITY





USA.gov is the U.S. government's official web portal to all federal, state and local government web resources and services.